Regional Weather Roundup
Issued by NWS

Home | Current Version | Previous Version | Text Only | Print | Product List | Glossary On
Versions: 1 2 3 4 5 6 7 8 9 10 11 12 13 14 15 16 17 18 19 20 21 22 23 24 25 26 27 28 29 30 31 32 33 34 35 36 37 38 39 40 41 42 43 44 45 46 47 48 49 50
000
ASUS43 KDTX 290201
RWRMI
MICHIGAN HOURLY REGIONAL WEATHER ROUNDUP
NATIONAL WEATHER SERVICE DETROIT/PONTIAC MI
1000 PM EDT SAT MAY 28 2016

NOTE: "FAIR" INDICATES FEW OR NO CLOUDS BELOW 12,000 FEET WITH NO
SIGNIFICANT WEATHER AND/OR OBSTRUCTION TO VISIBILITY.

MIZ047>049-052>055-059>063-066>070-074>076-081>083-290300-
SOUTHEAST LOWER MICHIGAN

CITY           SKY/WX    TMP DP  RH WIND       PRES   REMARKS
ADRIAN         LGT RAIN  76  60  57 SW12      30.06R
ALMA           CLOUDY    74  63  68 S5        29.96F
ANN ARBOR      PTCLDY    76  63  64 S10       30.04R
BAD AXE        CLEAR     74  67  79 S10       30.00S
CARO           CLEAR     75  63  67 SE6       29.98S
DETROIT CITY   PTCLDY    76  62  62 S12       30.04R
DETROIT        MOCLDY    74  65  73 S9        30.04R
FLINT          CLEAR     81  60  48 S9        30.00R
GROSSE ILE     PTCLDY    70  64  83 S7        30.04R
HILLSDALE      LGT RAIN  70  64  81 S7        30.05S
HOWELL         CLOUDY    77  62  58 S9        30.02R

CITY           SKY/WX    TMP DP  RH WIND       PRES   REMARKS
JACKSON        CLOUDY    77  64  64 S16G22    30.03R
LAMBERTVILLE   PTCLDY    78  66  67 SW10G18   30.05R
LANSING        CLOUDY    74  64  71 S7        30.00R
LAPEER         FAIR      75  64  69 S8        30.01S
MASON          MOCLDY    77  63  62 S8        30.01R
MONROE         CLEAR     75  66  74 SE6       30.04R
MT. CLEMENS    MOCLDY    71  65  82 S10       30.02R
PONTIAC        CLOUDY    77  62  59 S9        30.02R
PORT HOPE        N/A     75  68  78 VRB3      29.98R
PORT HURON     CLOUDY    72  64  78 S6        30.03S
TRI CITIES     TSTM      72  65  78 W15G31    29.98S
MIDLAND        RAIN      75  65  71 S12G23    29.98R
SAGINAW HB     MOCLDY    75  64  69 W17G23    29.99R
$$
MIZ043>046-050>051-056>058-064>065-071>073-077>080-290300-
SOUTHWEST LOWER MICHIGAN

CITY           SKY/WX    TMP DP  RH WIND       PRES   REMARKS
BATTLE CREEK   MOCLDY    73  62  68 S12       30.00S
BENTON HARBOR  CLEAR     78  61  55 S8        29.94S
BIG RAPIDS     MOCLDY    67  67  97 CALM      29.96S
COLDWATER      PTCLDY    75  61  62 S3        30.02S
FREMONT        FAIR      69  67  92 SE3       29.94S
HOLLAND        CLEAR     73  63  70 SW3       29.94F
GRAND RAPIDS   PTCLDY    74  61  63 S7        29.95F
IONIA          FAIR      75  60  59 S6        29.96S
KALAMAZOO      CLOUDY    75  61  61 S13       29.98S
LUDINGTON      CLEAR     73  64  73 S12       29.91S
MARSHALL       CLOUDY    73  64  73 S7        30.01S
MOUNT PLEASANT MOCLDY    79  62  55 S6        29.95S
MUSKEGON       PTCLDY    73  61  65 S8        29.93S
SOUTH HAVEN    CLEAR     73  62  68 S7        29.95R
$$
MIZ016>042-290300-
NORTHERN LOWER MICHIGAN

CITY           SKY/WX    TMP DP  RH WIND       PRES   REMARKS
ALPENA         PTCLDY    74  63  68 S5        29.95R
BEAVER ISLAND  CLOUDY    66  60  81 SW9       29.90F
BELLAIRE       PTCLDY    76  63  63 S6        29.92R
CADILLAC       CLOUDY    71  62  74 S9        29.96S
CHARLEVOIX     CLOUDY    70  58  63 N8        29.94R
FRANKFORT      CLEAR     73  64  72 S9        29.90S
GAYLORD        CLOUDY    75  61  61 SW15G21   29.96R
GRAYLING       CLOUDY    72  66  80 SW5       29.97S
HARBOR SPRINGS CLOUDY    73  64  72 CALM      29.91S
HOUGHTON LAKE  CLOUDY    73  62  68 S5        29.97R
MANISTEE       CLEAR     73  61  64 S5        29.92S
OSCODA         MOCLDY    78  60  53 S12       29.95S
PELLSTON       CLOUDY    73  65  75 CALM      29.92S
ROGERS CITY    CLOUDY    71  66  84 SW3       29.94S
TRAVERSE CITY  MOCLDY    76  61  59 VRB3      29.90R
$$
MIZ007>008-015-290300-
EASTERN UPPER MICHIGAN

CITY           SKY/WX    TMP DP  RH WIND       PRES   REMARKS
KINROSS          N/A     72  64  78 S6        29.93R
MACKINAC ISLAN PTCLDY    63  59  86 CALM      29.92S
NEWBERRY       CLEAR     67  62  83 S14       29.89S
S. S. MARIE    CLOUDY    71  64  78 SE7       29.92R
MUNISING         N/A     67  61  81 S7        29.83R
$$
MIZ004>006-011>014-085-290300-
CENTRAL UPPER MICHIGAN

CITY           SKY/WX    TMP DP  RH WIND       PRES   REMARKS
MANISTIQUE     PTCLDY    57  56  97 CALM      29.88S
ESCANABA         N/A     63  57  82 S6        29.85S
MENOMINEE      CLEAR     72  63  73 S9        29.83F
SAWYER-GWINN   CLEAR     68  63  83 S12       29.84R
$$
MIZ001>003-009>011-084-290300-
WESTERN UPPER MICHIGAN

CITY           SKY/WX    TMP DP  RH WIND       PRES   REMARKS
IRON MOUNTAIN  CLEAR     67  59  75 CALM      29.81S
HOUGHTON       CLOUDY    58  56  93 W15       29.79R FOG
COPPER HARBOR    N/A     48  47  96 SW3       29.76S
IRONWOOD       CLOUDY    55  55 100 CALM      29.79F VSB 3/4
$$

ABBREVIATIONS USED IN REMARKS
   TC - TEMPERATURE IN CELSIUS
  WCI - WIND CHILL INDEX
   HX - HEAT INDEX
  VSB - VISIBILITY





USA.gov is the U.S. government's official web portal to all federal, state and local government web resources and services.